Погода в Каце

Погода в Каце : погода сейчас, прогноз погоды и архив. Всё, что Вы хотите узнать о погоде в Каце!

Поиск расширенной информации на нашем сайте:

Другие новости

Новости СМИ2

Главная страница сайта

Новости сайта

03.07.2017

Напоминаем, что на нашем специализированном сайте Метеоцентр.Азия вы можете получить высокодетализированные автоматические прогнозы погоды по пунктам России, СНГ и мира в авиационном формате (включающие направление и скорость ветра, видимость, явления погоды, количество и форму облачности, нижнюю и верхнюю границу облачности).


Погода в Каце - сегодня

Время (UTC), дата Ветер
(°,м/с) 
Видим.   Явления Облачность Т
(°С)
Тd
(°С)
f(%) Тe
(°С)
Pmin
(гПа)
dP
(гПа)
Po
(мм)
O2
(г/м3)
Тmin Tmax R s Состояние
почвы
09 15.04.18 240 (ЮЗ) 4{10}  20000 м    4/4 1000 м 
[Cu med, cong]
+2.7 -9.1 41 +1  1009.8  -0.9  714  286           
12 15.04.18 240 (ЮЗ) 6-11{12}  20000 м    4/4 1000 м 
[Cu hum]
+2.7 -9.4 40 1009.5  -0.3  714  286    +3.7       
15 15.04.18 240 (ЮЗ) 2{11}  20000 м    3/0 верхняя 
[Ci fib]
+0.2 -9.4 48 -1  1010.5  0.5  714  288           
18 15.04.18 210 (ЮЗ) 20000 м    4/0 верхняя 
[Ci fib]
+0.9 -11.2 40 -1  1010.1  -0.3  714  288           
21 15.04.18 210 (ЮЗ) 20000 м    3/0 верхняя 
[Ci fib]
+1.1 -9.2 46 1009.5  -0.5  714  287           
00 16.04.18 210 (ЮЗ) 20000 м    8/8 2000 м средняя 
[As trans]
+1.3 -7.2 53 -1  1009.1  -0.3  713  287  -0.5      12  мокрый или
старый снег
50-90% 
03 16.04.18 220 (ЮЗ) 5{11}  20000 м    10/10 2000 м 
[As trans]
+3.2 -6.9 47 +1  1007.9  -0.8  713  284           
09 16.04.18 200 (Ю) 4{11}  20000 м    8/8 2000 м средняя 
[As trans]
+7.5 -7 35 +6  1004.5  -1.6  711  279           
12 16.04.18 200 (Ю) 2{10}  20000 м    8/8 2000 м средняя 
[As trans]
+6.9 -9.5 30 +7  1003.5  -1.1  710  280    +8.4       
15 16.04.18 200 (Ю) 20000 м    5/0 верхняя 
[Ci fib]
+4.7 -8.3 38 +4  1002.8  -1  709  282           
18 16.04.18 240 (ЮЗ) 20000 м    4/0 верхняя 
[Ci fib]
+3.4 -8.8 40 +2  1002.5  -0.5  709  283           
00 17.04.18 230 (ЮЗ) 7-12{13}  20000 м    6/3 1000 м верхняя 
[Cu med, cong|Ci fib]
+4 -4.1 55 +1  1003  0.2  709  282  +2.2      10  мокрый или
старый снег
50-90% 
12 17.04.18 270 (З) 5{13}  20000 м  {ливн. осадки}  8/8 840 м кучево-дожд. 
[Cb cap]
+1 -7.4 53 -2  1007.3  0.1  712  286    +5.4  0.6     
18 17.04.18 260 (З) 3{10}  20000 м  {ливн. осадки}  ясно 
-4.4 -8.2 75 -7  1012.9  1.9  715  294           
21 17.04.18 250 (З) 4{10}  20000 м    ясно 
-5.1 -9.1 73 -8  1014.7  1.5  716  295           
00 18.04.18 250 (З) 20000 м  слаб. ливневой снег  9/9 800 м кучево-дожд. 
[Cb cap]
-5.3 -8.2 80 -9  1016.5  1.6  717  296  -5.3    0.3  мокрый или
старый снег
50-90% 
09 18.04.18 240 (ЮЗ) 4{10}  20000 м    5/5 600 м кучево-дожд. 
[Cb cap]
-2.3 -11.7 48 -5  1019.4  0.6  720  294           
12 18.04.18 250 (З) 3{11}  20000 м    6/6 600 м кучево-дожд. 
[Cb cap]
-3.7 -9.6 64 -6  1020.1  0.4  720  295    -1.7  0.4     
15 18.04.18 тихо ()   20000 м    ясно 
-8.3 -11.5 78 -8  1022  0.8  721  301           
18 18.04.18 тихо ()   20000 м    ясно 
-11.4 -12.9 89 -11  1023.5  0.7  721  304           
21 18.04.18 тихо ()   20000 м    ясно 
-13.2 -14.6 89 -13  1024.3  0.3  722  307           
00 19.04.18 тихо ()   20000 м    6/6 1000 м 
[Cu med, cong]
-9.5 -10.8 90 -10  1024.2  0.8  722  302  -14      мокрый или
старый снег
50-90% 
03 19.04.18 260 (З) 20000 м    6/3 1000 м верхняя 
[Cu med, cong|Ci sp]
-3.6 -13.3 47 -7  1022.9  0.1  722  296           
06 19.04.18 250 (З) 20000 м    8/8 800 м кучево-дожд. 
[Cb cap]
-1.7 -12.5 43 -5  1021.5  -0.9  722  294           
09 19.04.18 260 (З) 20000 м    8/8 1110 м 
[Sc]
-1 -12.8 40 -3  1020.3  -0.9  721  293           
Время (UTC), дата Ветер
(°,м/с) 
Видим.   Явления Облачность Т
(°С)
Тd
(°С)
f(%) Тe
(°С)
Pmin
(гПа)
dP
(гПа)
Po
(мм)
O2
(г/м3)
Тmin Tmax R s Состояние
почвы

Для получения пояснительной информации подведите курсор к названию столбца.

ПОГОДА в Каце - архив

Всё, что Вы хотите узнать о погоде в Каце - удобно и подробно!

Выберите нужную дату (начиная с 1 января 2015* года) и нажмите кнопку "Найти".
Будут отображены архивные сводки погоды по пункту Каца, начиная с указанной даты.


Отображать данные в формате CSV (для использования в таблицах Excel)


Внимание! Наш архив погоды предназначен исключительно для личного некоммерческого использования в познавательных целях. Если Вам необходимы официальные справки о состоянии погоды (для производственных, юридических, коммерческих и т.п. целей), обращайтесь в органы Росгидромета.

*Примечание: данная дата относится к архиву по метеостанциям СССР (Россия, СНГ, Балтия).
Архив по метеостанциям Зарубежной Европы и Азии (кроме Китая) хранится 10 дней, по другим регионам земного шара (Китай, Африка, Америка, Австралия, Океания) - 1 день.

Каца - район местоположения метеостанции


Название, широта, долгота, высота метеостанции:
Каца 56.1°ш. 92.2°д. 479 м над ур. моря [Российская Федерация]

Дополнительная информация

В oтличие oт бoльшинства пoгoдных сайтoв мы публикуем пoдрoбную метеoинфoрмацию в детальнoм прoфессиoнальнoм фoрмате.

Характеристики температуры и влажнoсти вoздуха измеряются на высoте 2 м в тени вдали oт зданий и деревьев.
Скoрoсть ветра измеряется на высoте 10 м (на урoвне рoста челoвека скoрoсть ветра ниже в 1.5-2 раза). Если метеoстанция нахoдится в гoрoде или в лесу, тo скoрoсть ветра занижена на 2-4 м/с пo сравнению с oткрытым местoм. Скoрoсть ветра над акватoриями крупных рек и oзёр, а также на вершинах хoлмoв на 2-5 м/с выше, чем в oбычных услoвиях.
Атмoсфернoе давление в разных тoчках местнoсти мoжет значительнo oтличаться oт давления на метеoстанции, в зависимoсти oт услoвий рельефа (при пoдъёме на 10 м давление пoнижается примернo на 1 мм рт.ст.).